Theta_e
341 343 344 345 346 346 347 347 347 347 347 347 345 346 345 344 342 341 341 338 335 333 333 331 331 331 332 331 331 331 331 330 330 329 329 328 326 325 324 323 322 320 319 317 315 313 312 312 313 313 318 318
337 340 342 343 343 344 344 346 346 346 346 345 345 343 342 339 338 339 340 338 336 333 332 331 330 330 330 331 330 329 330 329 329 328 328 326 325 324 323 322 320 319 317 315 313 312 311 310 310 312 315 315
343 333 337 340 340 341 342 342 343 343 341 340 340 339 336 334 332 333 333 335 334 333 332 331 332 330 330 330 329 329 329 329 328 328 327 326 325 324 322 321 319 317 315 313 312 310 309 308 309 308 313 313
341 335 329 334 336 336 338 338 338 338 336 335 333 333 331 328 331 328 330 324 329 329 330 328 326 330 329 329 329 329 328 328 327 327 326 326 324 323 322 320 317 315 313 311 310 308 307 308 308 311 308 311
340 341 330 329 330 331 332 334 334 335 330 327 326 327 322 323 335 334 333 330 331 323 329 322 321 328 329 328 329 329 328 327 327 327 326 325 324 322 320 317 314 313 312 310 308 307 307 307 311 308 309 309
337 339 335 341 341 339 336 330 328 335 339 329 339 323 327 333 333 332 332 330 326 328 328 325 319 323 328 328 330 329 327 326 326 326 326 324 323 321 317 313 310 308 308 307 306 306 308 311 308 308 308 308
337 336 339 340 339 339 332 335 337 339 338 339 337 334 333 332 333 331 331 330 328 329 322 327 318 321 325 329 328 327 326 325 325 325 325 323 321 317 313 313 313 308 305 302 303 306 311 306 306 307 307 307
335 335 336 337 337 335 337 337 338 339 337 337 336 335 333 332 332 332 331 323 319 322 326 324 318 320 322 324 323 322 324 324 323 323 322 320 316 311 311 309 307 308 307 306 308 308 305 306 307 307 306 306
335 334 334 333 334 334 333 334 333 334 335 335 335 334 333 332 332 332 331 329 327 326 325 325 325 325 325 325 324 319 323 322 321 320 317 314 310 308 307 308 307 307 306 306 306 306 305 305 306 306 306 306
334 333 333 333 333 333 334 334 333 332 333 332 333 333 332 331 331 330 329 328 327 325 324 324 323 323 323 324 323 322 322 321 320 317 315 310 306 305 307 307 307 307 305 305 304 304 307 305 305 306 304 304
334 333 333 334 333 333 332 333 332 332 332 332 333 333 333 330 329 328 327 326 325 324 324 323 322 322 323 323 321 322 321 320 319 316 312 306 306 306 307 307 307 306 307 306 305 304 305 305 304 305 304 305
333 332 332 333 332 332 331 332 332 332 331 333 332 333 332 329 329 327 327 325 324 324 324 323 323 323 321 321 321 320 321 319 316 312 308 306 306 306 306 305 305 304 305 305 305 304 304 304 304 304 303 303
332 332 332 332 332 331 328 331 332 332 332 332 331 332 332 329 328 327 326 325 324 324 322 322 322 322 321 322 321 320 318 315 312 307 305 306 306 305 304 304 303 303 303 303 303 303 304 304 304 304 303 304
331 331 330 330 331 331 330 330 331 332 331 331 330 328 331 329 328 327 326 324 324 322 321 321 321 321 320 320 319 317 314 312 309 305 305 305 304 303 303 302 303 302 303 302 303 303 303 303 302 304 303 304
330 330 330 330 330 331 330 331 331 330 330 330 329 329 329 328 328 327 326 324 323 321 320 319 319 318 318 317 316 314 312 310 307 305 304 304 303 303 302 302 302 301 301 302 302 302 303 303 303 303 303 302
329 329 330 330 330 331 331 331 330 330 330 327 328 328 328 327 327 326 325 324 322 320 319 318 317 316 316 315 314 312 310 307 306 305 305 306 305 305 303 302 301 302 300 300 300 302 303 302 302 301 303 302
328 329 329 329 330 330 331 330 330 329 329 329 328 327 326 326 326 325 324 323 321 318 317 317 315 314 314 313 312 311 309 306 306 305 305 305 305 303 303 301 301 303 301 300 300 300 301 301 302 302 302 302
327 327 329 329 329 329 330 329 328 328 329 328 327 326 325 325 325 324 324 322 320 317 316 315 314 313 312 312 311 309 307 304 303 303 303 303 302 301 301 300 300 299 300 299 299 300 301 301 301 301 301 301
326 327 327 327 328 328 329 328 328 328 327 327 326 325 323 324 324 322 323 321 318 316 315 313 312 312 310 311 309 306 306 304 302 302 301 300 299 299 300 300 298 298 299 298 298 299 299 300 300 301 300 301
324 325 326 327 322 327 328 327 327 326 326 326 325 323 322 322 322 321 321 319 317 315 314 312 310 310 310 309 306 306 305 303 300 300 301 300 301 297 299 299 298 299 298 298 298 299 299 299 299 299 299 300
323 323 324 324 325 325 326 325 325 325 326 325 324 322 321 321 320 319 319 317 316 314 313 311 310 309 309 307 305 304 303 301 301 301 302 299 300 300 299 299 298 299 299 299 299 299 299 300 299 299 299 299
321 322 322 323 323 323 323 324 324 324 324 323 322 322 320 320 319 317 318 316 315 314 312 311 309 308 307 305 304 303 302 301 300 301 301 299 301 299 299 298 297 297 298 299 298 298 298 298 298 299 299 298
320 320 320 321 321 321 321 321 322 322 321 321 321 320 319 318 317 315 316 314 313 312 310 309 307 306 306 304 303 302 301 300 300 301 301 300 299 300 300 298 298 297 298 298 298 298 297 298 298 298 298 297
318 318 317 317 318 317 317 318 318 319 319 319 318 318 317 316 316 315 315 313 312 312 309 307 306 305 304 303 302 301 300 298 299 300 300 300 299 299 299 300 298 299 298 297 296 296 296 297 297 296 297 298
315 314 315 315 315 314 315 315 316 316 317 317 316 316 315 314 313 314 313 312 311 310 308 307 306 304 303 302 301 300 300 300 300 301 300 300 299 299 298 298 299 299 298 295 293 294 295 294 295 295 295 295
314 315 314 314 314 314 314 314 313 313 314 314 315 314 313 313 312 312 310 310 310 309 308 306 305 303 302 300 300 300 300 301 299 300 300 300 297 299 297 297 298 298 296 293 292 291 291 291 292 293 293 293
312 314 315 314 314 314 313 314 314 313 313 313 312 311 310 311 311 310 308 308 308 307 307 306 304 303 301 300 299 299 299 299 299 300 299 298 296 295 297 297 299 297 296 293 295 295 292 289 289 291 291 293
311 313 314 314 313 312 312 311 310 311 310 309 308 307 308 309 309 309 308 307 307 306 306 305 304 302 301 300 299 299 298 298 299 299 299 298 297 296 293 294 295 298 296 296 295 290 291 291 291 289 288 289
309 311 311 310 309 309 308 307 307 306 306 306 306 306 306 306 307 307 307 307 306 305 304 304 303 302 300 299 299 298 298 298 299 298 299 298 297 296 294 293 294 296 296 300 299 296 292 291 290 290 292 289
306 307 307 307 306 304 304 304 304 304 304 305 304 304 306 306 306 306 306 306 305 304 303 303 303 302 300 299 298 298 297 298 298 298 298 298 298 297 297 296 293 294 296 299 302 302 302 300 293 293 292 290
304 305 305 305 305 305 304 304 306 307 307 306 306 306 305 304 304 304 304 305 305 304 303 303 302 302 300 299 298 298 297 297 298 298 298 298 297 297 297 297 293 293 293 297 298 300 299 298 295 300 291 290
Wind_Speed
12 12 12 12 13 12 12 13 13 14 14 14 15 12 11 9 8 7 8 10 9 8 7 7 7 8 8 8 8 7 7 7 8 7 7 8 8 7 7 7 8 8 8 8 8 7 6 6 6 5 6 3
11 11 12 12 12 12 12 13 13 13 12 12 12 11 9 8 6 8 7 9 8 9 8 7 8 9 9 9 8 8 8 7 7 7 8 9 8 8 8 8 8 8 8 8 8 7 6 5 5 4 5 3
10 11 11 12 12 11 12 11 11 12 11 10 9 9 9 9 8 8 9 8 8 7 6 6 5 6 9 9 9 9 8 7 8 8 9 9 9 9 8 8 8 8 8 8 7 7 5 4 2 2 2 3
14 11 11 10 11 11 10 10 9 10 10 10 9 9 9 9 8 8 8 10 8 8 8 8 7 6 9 10 10 9 10 9 9 9 9 9 9 9 9 9 8 8 8 7 7 5 3 1 3 2 3 2
13 13 13 9 10 11 10 10 9 8 9 8 8 8 9 10 8 8 7 8 8 9 7 9 6 5 9 10 9 9 9 10 10 10 10 9 9 9 9 9 9 8 7 7 6 4 3 4 4 3 2 1
11 9 14 13 11 9 9 8 8 7 8 8 7 9 8 8 8 8 7 8 9 8 8 8 9 6 6 9 6 8 10 10 11 11 10 10 10 10 10 10 5 4 5 5 4 2 4 4 2 2 2 1
9 13 10 13 14 12 11 10 10 11 9 10 11 8 9 9 9 9 8 8 8 6 9 9 10 7 5 7 8 9 8 11 11 11 11 10 10 9 9 4 3 4 4 3 4 5 3 2 2 2 1 2
11 11 12 11 13 13 12 14 11 11 13 11 12 10 10 10 11 9 8 6 10 6 8 7 10 8 7 6 9 10 7 9 10 11 10 9 9 6 4 3 3 3 3 3 2 1 2 2 2 1 2 2
12 12 11 12 12 13 12 12 14 14 14 12 12 13 11 12 11 9 9 6 7 7 7 7 7 7 7 7 7 9 8 8 8 7 6 5 5 4 3 3 2 2 2 2 2 1 2 2 2 2 2 1
11 12 12 11 11 12 11 11 12 12 13 13 13 12 11 11 12 12 11 7 8 8 7 7 7 8 9 8 9 9 7 7 7 7 6 5 5 4 3 3 2 2 2 2 1 2 2 2 1 1 1 2
10 12 11 11 11 12 12 12 11 12 11 12 13 12 10 10 11 12 10 8 8 9 8 8 8 8 8 8 8 9 8 7 7 6 5 5 5 4 3 3 2 2 2 2 2 2 2 1 1 1 1 1
12 12 12 11 11 12 11 11 11 11 11 11 12 12 11 11 11 12 9 8 9 9 8 8 8 8 8 8 8 8 7 7 6 6 5 5 5 4 3 3 3 3 3 2 2 2 2 1 1 1 1 2
12 12 12 12 12 12 10 11 11 11 11 11 11 12 12 12 14 11 9 9 9 9 9 8 8 8 8 8 7 8 7 6 6 5 5 5 5 4 4 4 4 3 3 2 2 2 2 1 2 1 1 1
13 13 13 13 12 12 11 12 11 12 11 11 11 12 12 12 13 10 10 9 9 9 9 9 8 8 8 8 7 7 6 6 6 5 5 5 5 5 5 5 4 4 3 2 2 2 2 2 1 1 1 1
14 13 13 12 12 12 12 11 11 11 11 10 11 11 12 15 13 10 10 10 10 9 9 9 9 8 8 7 7 7 6 5 5 5 5 6 6 6 5 4 4 4 4 3 2 2 2 1 1 1 1 1
13 14 13 12 12 12 11 12 11 10 10 10 10 12 13 13 11 10 10 10 10 10 10 9 9 8 8 8 7 7 6 6 5 5 4 5 4 4 4 5 4 3 4 3 3 3 2 1 1 2 1 2
13 12 12 12 12 11 10 11 11 11 10 10 10 12 11 11 12 10 10 10 11 10 9 9 9 9 8 8 7 7 7 7 5 5 4 4 4 4 4 5 5 3 3 4 3 3 3 2 1 1 1 1
10 11 11 10 10 10 10 10 10 11 10 10 10 10 10 11 12 11 10 9 10 9 9 9 9 9 8 8 8 7 7 7 6 5 5 5 5 5 4 5 5 5 4 4 4 3 3 2 2 1 1 1
10 9 10 9 9 9 10 10 10 10 9 9 9 9 8 11 11 11 11 10 9 10 9 9 9 9 8 8 8 7 7 7 6 5 6 6 6 5 4 4 5 5 4 4 4 3 3 2 2 2 2 2
10 9 9 8 8 8 9 9 9 9 9 9 9 8 8 11 10 10 11 10 9 9 9 8 8 8 8 9 8 7 7 7 7 6 6 6 6 6 5 6 5 4 4 4 4 3 3 3 3 3 2 3
10 9 9 9 8 9 8 8 8 8 8 8 8 8 8 9 10 10 11 10 9 8 9 8 8 8 9 8 8 8 8 8 7 7 6 6 6 5 6 6 6 5 5 4 4 3 3 3 3 3 3 4
9 8 8 8 7 8 9 8 8 7 8 8 7 7 7 8 9 9 11 10 9 8 8 7 7 7 8 8 8 7 8 8 7 7 8 8 6 7 7 7 8 7 6 4 4 4 3 3 2 2 3 3
7 8 7 6 7 7 8 6 7 7 7 6 6 7 7 7 8 8 9 9 9 8 7 7 7 7 8 8 8 7 8 8 8 8 9 8 8 7 6 7 7 7 6 5 4 4 4 3 2 2 3 3
6 6 6 7 6 6 6 6 6 7 6 6 6 6 6 6 7 8 8 8 8 8 7 7 7 6 7 7 8 8 9 9 9 11 11 10 10 9 6 5 7 7 8 7 6 5 4 3 3 3 3 3
6 6 6 6 7 7 6 7 7 6 7 6 6 6 6 6 7 7 8 8 8 9 8 7 6 6 6 7 7 7 8 9 9 9 9 8 8 10 8 6 7 8 8 8 6 4 4 4 3 3 2 4
4 5 5 5 5 5 5 5 6 6 5 6 4 5 5 6 7 7 8 8 8 8 8 8 7 7 7 8 7 7 7 8 7 9 9 8 7 6 10 8 9 9 10 6 7 7 5 4 4 3 2 3
3 4 4 4 3 3 3 3 3 4 4 4 5 3 4 5 5 7 7 8 9 8 9 8 8 7 7 8 7 7 8 8 9 9 11 11 9 8 6 6 8 11 10 7 7 6 5 4 4 3 3 4
4 3 1 1 1 1 1 0 2 3 3 4 5 5 5 5 5 6 6 8 9 7 8 9 9 7 7 9 8 7 8 9 9 9 9 10 11 10 9 7 8 10 11 7 11 7 6 5 4 3 7 7
5 1 0 2 3 2 2 1 1 2 4 5 5 6 6 8 8 9 8 9 10 9 9 9 9 8 8 9 9 8 8 8 9 10 10 11 11 12 10 9 6 9 11 8 9 6 6 3 4 7 5 9
6 4 4 3 2 3 3 4 4 5 5 4 5 6 5 6 8 9 9 9 10 10 10 10 10 9 8 9 8 9 9 8 8 10 11 12 11 12 11 8 8 7 9 9 6 4 1 1 3 5 8 8
6 5 5 5 4 4 5 5 4 3 3 3 2 2 4 5 6 7 8 8 9 10 10 10 10 10 9 9 9 9 9 10 10 9 11 10 11 10 10 9 10 12 9 3 4 4 3 2 2 1 11 6
Wind_Direction
198 199 203 203 204 202 196 198 197 194 189 192 193 194 198 201 198 186 178 181 177 173 185 188 204 214 228 201 198 187 186 185 189 184 172 155 140 142 137 131 122 113 103 96 89 81 71 58 45 17 332 80
205 204 206 202 200 197 194 196 191 191 187 190 194 190 195 188 187 179 175 171 180 176 182 181 200 209 221 210 200 197 192 192 186 175 168 151 146 145 139 133 123 112 107 100 93 87 75 63 43 17 330 79
202 210 205 202 199 198 198 196 194 192 194 192 195 188 184 184 162 166 155 158 166 169 147 156 181 218 212 212 203 195 197 194 182 173 170 148 151 145 140 132 122 115 109 107 104 96 90 75 72 292 269 71
210 199 210 207 202 205 208 203 199 198 195 196 192 189 174 167 153 157 157 152 150 145 137 145 179 200 219 208 200 199 198 188 179 178 165 153 149 143 139 127 117 112 110 109 103 105 95 167 245 233 80 90
207 198 195 209 210 208 210 206 200 200 195 190 188 172 155 148 169 176 165 157 172 133 155 152 164 182 209 203 205 197 188 184 180 178 161 156 149 144 128 110 100 99 107 111 115 120 188 238 239 72 91 107
208 204 185 204 207 206 206 207 199 196 203 191 194 164 155 177 188 187 183 184 183 168 165 151 154 164 196 206 190 178 182 181 181 174 160 158 151 138 125 129 128 108 89 97 115 168 245 246 82 94 82 81
211 212 187 201 211 213 211 210 206 213 205 205 210 182 186 197 208 197 194 191 185 188 170 161 158 164 186 208 151 155 173 183 181 177 161 158 143 137 146 185 157 142 152 145 194 225 236 69 57 71 70 89
213 213 210 205 211 213 210 216 211 214 215 211 215 199 199 207 214 199 207 143 144 136 164 147 159 161 188 167 142 141 162 179 184 178 167 157 136 149 190 190 174 146 172 175 176 149 103 97 88 64 70 60
208 212 214 212 210 212 211 211 215 215 217 212 213 211 210 215 210 199 205 154 161 181 179 171 178 178 188 177 166 149 180 181 175 164 160 151 175 192 190 188 172 160 154 155 147 108 81 94 83 85 62 50
207 210 214 211 207 208 209 207 206 209 211 212 211 213 210 211 210 206 206 172 175 182 182 180 182 186 189 185 186 173 186 182 169 185 172 173 191 191 181 181 162 160 143 132 124 101 72 61 85 60 46 59
208 212 217 214 210 210 208 207 203 204 206 209 205 206 198 207 205 202 197 174 179 183 184 185 183 185 188 183 186 181 193 184 172 185 174 176 184 182 168 154 137 124 97 92 103 97 96 72 61 74 74 62
208 210 211 212 211 210 206 203 203 202 203 202 203 198 197 206 201 197 184 175 181 184 190 189 186 184 186 185 185 179 193 176 176 180 175 174 171 164 159 154 150 141 133 118 111 108 104 99 73 59 64 60
205 205 206 206 209 209 202 207 204 201 199 201 198 196 202 195 200 194 186 180 183 183 189 186 186 184 186 180 181 180 188 176 177 180 174 169 165 168 168 157 158 143 140 149 133 120 115 117 83 82 74 73
203 205 206 205 207 208 202 209 204 197 200 200 198 201 199 197 201 187 184 181 182 182 185 185 185 186 183 183 182 180 183 178 178 177 173 170 171 174 167 165 150 147 139 131 120 127 119 113 129 112 100 124
204 205 208 203 205 208 207 204 202 201 199 197 199 198 198 202 195 184 183 180 181 181 183 185 184 186 182 182 179 178 178 173 178 178 179 176 173 171 166 153 143 152 138 136 131 107 124 128 126 125 122 135
203 203 204 204 202 205 203 200 201 202 202 202 198 202 197 194 186 184 184 182 179 181 179 183 181 184 184 184 177 177 175 168 176 176 176 169 177 167 158 140 145 144 144 149 144 133 129 153 159 155 141 134
201 202 202 201 203 204 200 201 199 202 200 198 201 204 189 184 185 185 185 184 180 178 179 180 177 182 185 184 177 175 169 159 164 167 153 149 148 154 147 140 136 138 146 144 139 151 152 155 145 129 152 122
200 202 203 201 202 203 199 199 199 202 200 197 196 192 184 181 186 187 188 182 178 174 178 177 177 181 181 183 172 168 158 162 169 172 164 160 170 163 159 153 149 155 153 150 146 149 152 165 148 141 133 114
208 204 204 201 203 199 199 201 202 202 202 201 199 191 183 183 185 186 187 183 175 177 183 180 179 182 180 176 166 164 166 168 173 174 172 166 176 162 170 157 152 162 157 153 153 150 158 160 142 145 122 107
211 208 207 207 202 204 198 200 204 203 203 202 200 195 187 183 185 183 187 185 179 179 187 185 181 181 176 169 162 167 164 173 175 177 172 176 172 162 170 156 155 165 157 155 152 150 161 144 161 155 149 145
208 207 207 207 206 206 200 202 204 205 206 204 202 199 193 184 183 180 185 185 182 179 187 189 186 183 176 163 166 168 167 179 179 173 171 172 180 173 161 160 156 161 153 148 143 140 138 139 162 155 149 157
205 208 207 208 206 204 204 202 206 206 204 207 204 200 198 180 180 179 186 184 182 184 189 190 189 183 170 162 169 169 171 179 179 173 170 167 174 179 166 165 162 163 152 137 141 136 138 151 164 131 141 137
204 207 211 213 210 205 207 201 203 205 206 205 204 205 197 179 179 178 186 183 179 185 187 193 191 187 167 165 173 172 174 177 181 175 176 169 167 179 176 166 162 157 138 132 128 132 127 121 116 133 136 154
200 202 206 206 205 211 210 209 204 204 210 204 205 201 192 177 178 177 185 183 179 185 187 192 194 188 163 172 178 178 179 182 183 178 175 176 165 163 157 163 155 139 134 127 123 120 114 109 117 129 152 144
201 201 205 211 213 215 206 207 205 205 207 208 207 195 190 176 176 178 178 180 180 190 192 195 195 188 170 176 186 188 190 190 185 178 176 164 166 161 147 158 152 146 140 135 130 134 137 133 135 131 162 150
215 218 217 211 215 213 212 202 203 214 212 215 212 201 184 176 171 172 175 177 185 190 196 195 199 194 174 179 192 196 192 189 180 178 181 162 156 179 169 162 165 158 147 172 167 158 160 159 153 160 170 177
238 235 239 237 243 217 210 207 202 202 204 195 202 185 175 181 177 177 174 175 183 188 194 199 202 195 176 182 193 189 188 187 184 182 183 177 173 167 189 160 171 170 181 159 162 151 142 178 162 168 204 193
303 297 272 246 336 38 269 45 130 154 146 151 166 178 172 181 187 190 188 185 185 187 194 199 202 194 182 183 192 193 192 191 190 185 189 187 190 174 165 177 181 187 194 177 153 170 197 167 180 184 208 186
316 349 93 131 100 104 98 62 161 168 209 199 198 202 192 194 188 191 192 189 189 190 198 200 206 201 187 180 190 194 202 200 195 192 196 192 192 189 177 176 164 189 201 212 194 159 156 146 206 221 147 153
330 318 303 267 246 234 234 247 230 234 236 217 210 214 213 198 193 193 195 195 195 196 195 197 201 201 192 187 189 195 205 205 193 195 197 195 199 198 202 176 153 178 208 220 231 276 299 63 172 175 139 151
354 338 324 319 319 324 316 311 301 302 290 265 242 210 203 198 195 201 202 206 206 201 198 199 200 200 197 193 194 198 206 209 203 195 198 192 204 201 198 182 183 184 182 196 260 241 213 213 180 220 141 189